Startseite
Über Mich
AHP4
Galerie
Sehschlangen
Tourenbuch
Bookmarks
Elektronik
Bewertung
Geschichten
[Tagesmessung] [Jahreswerte] [Information]

Messwerte vom 26.05.2022

Die letzten Messwerte von 23:58:47 Uhr:
KategorieMesswert
Temperatur [°C]15
Luftdruck [mBar]1001
Sonneneinstrahlung0
Wind [km/h]2 aus Südost
Niederschlag [l/m²]0
rel.Luftfeucht.82.3%
CO2 [ppm]427

Diagramme
Messwerte vom 26.05.2022
Tagesaggregation
KategorieMinimumMaximumSchnittSumme
Temperatur [°C]132617.4229
Luftdruck [mBar]99810031000.8833
Sonneneinstrahlung247127.0375
Wind [km/h]23
rF [%]39.391.463.73
Niederschlag [l/m²]0.2575
CO2 [ppm]399451427.6
Einordnung alsVegetationstag
Sommertag

Messungen an benachbarten Tagen: Zur Jahresaggregation 2022
Tabelle aller Messwerte
UhrzeitTemperatur [°C]Luftdruck [mBar]SonneWind [km/h]RichtungRegen [l/m²]rF [%]CO2 [ppm]
00:01:48 15 1000 0 0 SW 0 54.3 434
00:04:48 15 998 0 2 SO 0 54.5 430
00:07:47 15 998 0 0 NO 0 54.7 437
00:10:46 15 999 0 1 S 0 54.9 434
00:13:46 15 999 0 0 SO 0 55.1 431
00:16:46 15 999 0 0 S 0 55.2 431
00:19:48 15 998 0 0 SO 0 55.5 432
00:22:45 15 999 0 0 S 0 56 433
00:25:46 15 998 0 0 SW 0 56.4 430
00:28:47 15 999 0 0 S 0 56.6 434
00:31:48 15 999 0 0 SO 0 57 433
00:34:45 15 999 0 0 SO 0 57.1 428
00:37:46 14 999 0 1 SW 0 57.2 434
00:40:48 14 999 0 0 SO 0 57.8 431
00:43:46 14 999 0 0 S 0 58.3 427
00:46:47 14 999 0 0 SO 0 58.5 428
00:49:48 14 999 0 0 O 0 58.5 436
00:52:46 14 998 0 0 W 0 58.8 439
00:55:47 14 998 0 0 S 0 58.9 436
00:58:46 14 999 0 1 S 0 59.2 436
01:01:48 14 999 0 1 SO 0 59.7 438
01:04:46 14 999 0 3 SW 0 60.4 436
01:07:47 14 999 0 0 W 0 60.6 436
01:10:45 14 999 0 2 S 0 60.4 433
01:13:48 14 999 0 2 O 0 60.2 428
01:16:47 14 999 0 1 W 0 60 431
01:19:49 14 999 0 1 NO 0 59.9 434
01:22:44 14 999 0 2 S 0 60 433
01:25:47 14 999 0 1 SW 0 60 431
01:28:48 14 999 0 0 S 0 60.2 428
01:31:48 14 999 0 1 S 0 60.4 434
01:34:49 14 998 0 0 NO 0 60.6 433
01:37:45 14 999 0 2 S 0 60.9 437
01:40:48 14 999 0 1 SW 0 62 433
01:43:46 14 998 0 1 S 0 62.2 436
01:46:47 14 998 0 1 S 0 62.3 430
01:49:46 14 998 0 3 SO 0 62.2 434
01:52:45 14 998 0 1 0 62.2 431
01:55:48 14 999 0 0 SO 0 61.9 436
01:58:47 14 998 0 2 SO 0 61.7 445
02:01:48 15 998 0 4 W 0 61.5 439
02:04:47 15 998 0 1 NW 0 61.2 436
02:07:49 15 998 0 0 S 0 60.6 427
02:10:48 15 999 0 4 SW 0 60.3 431
02:13:46 15 999 0 1 SO 0 60.1 436
02:16:46 15 999 0 1 SW 0 60 439
02:19:47 15 999 0 1 W 0 60.2 436
02:22:47 15 999 0 1 SW 0 60.3 434
02:25:46 15 999 0 2 SW 0 60.2 431
02:28:48 15 999 0 0 SW 0 60.4 425
02:31:46 15 999 0 2 SW 0 60.5 431
02:34:49 15 998 0 4 SW 0 60.7 436
02:37:47 15 999 0 0 W 0 60.6 436
02:40:47 15 999 0 3 SO 0 60.6 433
02:43:47 15 998 0 1 NW 0 60.7 427
02:46:47 15 999 0 4 O 0 60.8 434
02:49:51 15 999 0 4 SO 0 61.1 442
02:52:45 15 999 0 3 S 0 61.1 437
02:55:48 15 999 0 4 NO 0 61.5 434
02:58:46 15 999 0 2 SO 0 61.7 439
03:01:47 15 999 0 2 S 0 61.8 437
03:04:45 15 999 0 1 S 0 62.2 433
03:07:46 15 999 0 5 W 0 62.2 433
03:10:47 15 999 0 3 SO 0 62.7 430
03:13:47 15 999 0 4 W 0 62.8 433
03:16:44 15 999 0 4 SW 0 63 431
03:19:48 15 999 0 4 SW 0 63.4 430
03:22:47 15 999 0 3 S 0 63.8 430
03:25:45 15 999 0 14 O 0 64.5 436
03:28:47 15 999 0 4 SW 0 64.6 431
03:31:48 15 998 0 3 NO 0 64.8 433
03:34:48 15 999 0 2 NO 0 65 431
03:37:47 15 999 0 1 SW 0 65 427
03:40:47 15 999 0 7 W 0 65.2 431
03:43:47 15 999 0 4 W 0 65.5 434
03:46:47 15 999 0 1 O 0 65.6 436
03:49:49 15 998 0 2 NW 0 65.6 433
03:52:47 15 999 0 1 S 0 65.9 436
03:55:47 15 999 0 2 SO 0 66 433
03:58:46 15 998 0 3 S 0 66.1 439
04:01:48 15 999 0 2 W 0 66.4 442
04:04:47 15 999 0 3 NO 0 66.6 442
04:07:49 15 999 0 3 SO 0 66.7 439
04:10:46 15 999 0 5 S 0 67 437
04:13:46 15 999 0 5 SO 0 67.8 442
04:16:44 15 999 0 3 S 0 68.3 444
04:19:46 15 999 0 2 S 0 68.6 439
04:22:46 15 999 0 4 NW 0 69.1 433
04:25:46 15 998 0 3 S 0 69.9 427
04:28:46 15 999 0 16 W 0 70.4 430
04:31:46 15 999 0 2 N 0 70.9 434
04:34:46 14 999 0 4 S 0 71 436
04:37:49 14 999 0 11 SW 0 71.2 445
04:40:46 14 999 0 0 S 0 71.4 436
04:43:49 14 999 0 4 SO 0 71.8 436
04:46:46 14 999 4 2 SW 0 72.2 439
04:49:46 14 999 6 1 SO 0 72.3 442
04:52:46 14 999 8 1 NW 0 71.9 433
04:55:47 14 1000 12 2 O 0 72.2 430
04:58:46 14 999 15 11 SO 0 72.6 427
05:01:47 14 999 18 1 W 0 72.5 433
05:04:49 14 999 24 3 NW 0 72.5 436
05:07:50 14 999 32 2 SW 0 72.5 439
05:10:49 14 999 36 2 SW 0 72.4 434
05:13:46 14 998 40 2 O 0 72.5 436
05:16:48 14 999 47 2 S 0 72.8 436
05:19:48 14 999 58 2 SW 0 72.8 439
05:22:49 14 999 61 4 SO 0 72.8 437
05:25:49 14 999 62 5 SW 0 72.9 436
05:28:47 14 999 73 1 S 0 72.8 428
05:31:46 14 999 79 5 S 0 72.8 431
05:34:48 14 999 88 2 NW 0 73 436
05:37:47 14 999 91 6 S 0 73.1 439
05:40:48 14 999 93 0 SW 0 73.2 434
05:43:49 14 999 101 2 W 0 73.2 430
05:46:48 14 999 80 5 SW 0 73.3 428
05:49:47 14 999 92 3 W 0 73.3 431
05:52:44 14 999 87 4 O 0 73.3 430
05:55:48 14 999 97 4 NW 0 73.4 431
05:58:46 14 999 103 4 S 0 73.4 433
06:01:46 14 999 95 1 NO 0 73.7 434
06:04:49 14 999 115 5 W 0 73.7 442
06:07:48 14 999 127 9 SW 0 74.2 448
06:10:48 15 999 134 7 S 0 74 451
06:13:47 15 999 145 2 O 0 73.9 445
06:16:47 15 999 139 0 SW 0 73.9 439
06:19:48 15 1000 139 11 S 0 73.5 434
06:22:48 15 999 160 3 NW 0 73.5 440
06:25:47 15 999 172 7 SW 0 73.3 433
06:28:49 15 999 174 0 NW 0 73.2 428
06:31:46 15 999 168 2 S 0 73.1 430
06:34:46 15 999 163 4 O 0 73 436
06:37:49 15 999 176 4 S 0 72.8 439
06:40:49 15 1000 155 2 S 0 72.8 425
06:43:47 15 1000 153 2 SW 0 72.7 424
06:46:47 15 999 170 2 S 0 72.7 421
06:49:48 15 999 168 0 S 0 72.9 421
06:52:50 15 999 151 2 SW 0 73 427
06:55:49 15 1000 156 14 0 73 436
06:58:47 15 999 171 3 W 0 73.1 436
07:01:49 15 1000 172 3 SW 0 73.2 442
07:04:48 15 999 147 2 W 0 74.5 436
07:07:48 14 1000 154 9 SW 0 80.9 436
07:10:47 14 1000 172 7 S 0 83.4 427
07:13:49 14 999 169 3 S 0 85.2 430
07:16:50 13 1000 176 10 NO 0 87.9 433
07:19:49 13 1000 173 2 O 0 87.8 436
07:22:49 13 1001 179 4 SW 0.2575 87.9 436
07:25:47 13 1001 182 1 S 0 89 439
07:28:47 13 1001 179 1 W 0 89.6 434
07:31:50 13 1001 168 8 SO 0 90.1 436
07:34:49 13 1000 165 3 NW 0 90.9 436
07:37:48 13 1000 158 3 S 0 90.9 437
07:40:47 13 1000 163 4 W 0 91.1 436
07:43:49 13 1001 170 4 SW 0 91.2 442
07:46:46 13 1001 194 4 W 0 91.4 434
07:49:47 14 1001 205 3 S 0 91.3 439
07:52:48 14 1001 206 1 NW 0 91.3 431
07:55:47 14 1001 200 2 SO 0 91.4 433
07:58:49 14 1000 206 8 SW 0 91 434
08:01:50 14 1001 201 6 SW 0 90.1 436
08:04:46 14 1001 194 1 S 0 90 428
08:07:51 14 1001 199 3 SW 0 89.5 427
08:10:47 14 1002 205 15 S 0 89.1 436
08:13:48 15 1002 211 1 W 0 89.2 442
08:16:48 15 1001 210 0 SW 0 89.2 439
08:19:48 16 1001 213 1 O 0 87.8 442
08:22:48 16 1001 214 4 NO 0 86.6 439
08:25:49 17 1001 214 2 NW 0 85.6 436
08:28:50 17 1001 214 6 SO 0 83.7 433
08:31:49 17 1002 211 2 W 0 83.2 434
08:34:48 17 1001 213 0 SO 0 82.5 433
08:37:48 17 1001 214 3 NO 0 82.1 434
08:40:47 17 1001 213 2 W 0 81.5 427
08:43:48 17 1001 213 0 W 0 80.8 431
08:46:48 17 1002 215 4 SW 0 80.5 436
08:49:48 17 1001 214 4 W 0 79.6 440
08:52:47 17 1001 209 4 S 0 78.5 430
08:55:50 17 1002 209 1 S 0 77.4 428
08:58:48 17 1002 210 4 SW 0 77.3 425
09:01:49 17 1001 212 1 SW 0 78.4 428
09:04:49 17 1001 208 5 W 0 78.7 439
09:07:48 17 1002 211 5 S 0 77.3 439
09:10:47 17 1001 213 2 SO 0 76.3 446
09:13:50 17 1001 219 2 SW 0 77.1 442
09:16:48 17 1001 202 7 NW 0 75 432
09:19:50 17 1002 210 1 SW 0 74 430
09:22:48 17 1002 218 3 W 0 75.5 432
09:25:51 17 1003 210 0 NW 0 76.8 436
09:28:51 17 1002 211 5 SW 0 76.8 437
09:31:50 17 1002 221 2 SW 0 76.5 434
09:34:49 17 1002 192 4 S 0 75.2 436
09:37:47 17 1002 207 6 SO 0 74.1 436
09:40:49 17 1002 220 17 SO 0 73.7 432
09:43:47 17 1002 212 3 O 0 74.5 433
09:46:47 17 1002 205 2 N 0 75.2 434
09:49:48 17 1002 219 3 S 0 74.9 427
09:52:48 18 1002 225 4 SO 0 73.6 424
09:55:49 18 1002 209 6 SW 0 71.5 427
09:58:48 18 1002 211 7 SW 0 71.1 428
10:01:50 18 1002 222 3 NW 0 70.9 430
10:04:51 18 1002 215 2 SO 0 70.1 427
10:07:49 18 1002 205 2 S 0 69.8 421
10:10:48 18 1002 213 3 W 0 70.6 430
10:13:50 18 1002 217 3 NO 0 70.5 427
10:16:49 18 1002 216 5 SO 0 71.1 422
10:19:48 18 1002 217 1 S 0 71.4 424
10:22:49 18 1002 209 1 S 0 71.5 427
10:25:48 18 1002 210 3 SO 0 71.5 427
10:28:47 18 1002 219 2 NO 0 71 433
10:31:47 18 1002 216 3 S 0 70.9 434
10:34:49 18 1002 214 8 SO 0 69.9 427
10:37:48 18 1002 214 1 S 0 69.1 428
10:40:47 18 1002 209 7 O 0 68.8 431
10:43:48 17 1002 211 6 S 0 69.7 427
10:46:51 17 1002 213 0 SO 0 70.5 431
10:49:49 18 1002 215 0 SO 0 71.7 424
10:52:48 18 1002 221 3 SO 0 72.4 421
10:55:50 19 1002 225 2 NW 0 67.9 425
10:58:49 19 1002 224 7 W 0 67.7 436
11:01:50 19 1002 225 8 SO 0 67.5 428
11:04:51 20 1002 226 7 SO 0 66.6 425
11:07:50 20 1002 225 6 SW 0 66.4 431
11:10:49 20 1002 222 5 N 0 65.4 430
11:13:48 20 1002 225 1 SW 0 64.3 431
11:16:49 20 1002 221 2 SW 0 63.8 428
11:19:50 20 1002 222 6 S 0 60.3 422
11:22:49 20 1002 224 6 W 0 59.9 427
11:25:50 20 1002 223 4 SW 0 60.3 424
11:28:48 20 1002 217 8 W 0 61.5 422
11:31:48 20 1002 214 0 W 0 60.5 430
11:34:49 19 1002 208 3 NW 0 59.6 434
11:37:48 19 1002 209 2 W 0 60.6 427
11:40:48 19 1002 209 2 SW 0 62.1 424
11:43:48 19 1002 211 5 SW 0 63.7 422
11:46:46 20 1002 213 5 W 0 62 418
11:49:33 18 1002 223 8 S 0 52.6 425
11:52:47 21 1002 222 10 W 0 57.3 425
11:55:48 21 1002 227 4 W 0 56.8 430
11:58:48 22 1002 228 10 O 0 53.6 433
12:01:49 22 1002 216 3 S 0 52.9 427
12:04:48 22 1002 218 10 S 0 52.6 425
12:07:48 20 1002 225 2 SO 0 53.3 424
12:10:49 20 1002 228 4 SW 0 55.3 424
12:13:49 21 1002 226 8 SO 0 57.2 424
12:16:51 21 1002 223 7 NW 0 56 418
12:19:52 20 1002 219 2 SW 0 56.4 424
12:22:48 20 1002 212 1 SW 0 57.4 427
12:25:49 20 1002 222 5 W 0 59.6 425
12:28:48 20 1002 223 0 O 0 60 421
12:31:51 20 1002 227 4 SO 0 60.2 422
12:34:49 21 1002 228 6 W 0 59.3 419
12:37:33 19 1002 227 2 NW 0 50.4 422
12:40:49 21 1002 223 7 SW 0 54 424
12:43:48 21 1002 219 4 W 0 53.4 424
12:46:46 22 1002 221 3 W 0 53.2 418
12:49:47 23 1002 223 1 W 0 51.8 418
12:52:49 23 1002 231 2 N 0 50.7 419
12:55:51 24 1002 225 2 NW 0 47.5 422
12:58:48 24 1002 221 5 W 0 46.5 424
13:01:52 23 1002 221 4 SW 0 46.5 422
13:04:51 22 1002 222 3 SW 0 48.9 422
13:07:48 22 1002 212 4 S 0 49.4 419
13:10:51 21 1002 218 3 NW 0 49.5 419
13:13:47 21 1002 221 2 O 0 49.4 416
13:16:49 20 1002 225 7 SW 0 50.1 422
13:19:49 20 1002 227 1 NW 0 51.2 434
13:22:48 21 1002 232 7 SW 0 51.7 428
13:25:47 23 1002 230 4 SO 0 51.6 425
13:28:48 23 1002 230 4 NW 0 49.5 424
13:31:50 23 1002 228 9 W 0 47.1 424
13:34:50 23 1002 233 4 SW 0 46.4 422
13:37:49 23 1002 228 23 O 0 46.6 424
13:40:49 23 1002 222 14 SO 0 46.3 421
13:43:50 22 1002 219 9 W 0 46.8 425
13:46:49 21 1002 215 8 W 0 47.8 424
13:49:47 21 1002 227 2 S 0 49.1 424
13:52:50 21 1002 224 2 NW 0 50.5 422
13:55:49 21 1002 228 1 W 0 51.8 422
13:58:50 21 1003 230 3 SO 0 51.8 416
14:01:48 23 1002 235 6 O 0 49.8 412
14:04:48 24 1002 233 3 W 0 48.1 413
14:07:49 24 1002 223 8 SO 0 46.4 416
14:10:49 24 1002 208 4 W 0 44.2 422
14:13:48 22 1002 207 2 S 0 44.5 421
14:16:50 21 1002 223 5 SW 0 48.1 425
14:19:48 21 1002 226 2 O 0 50.4 425
14:22:47 21 1002 241 2 SW 0 51.9 428
14:25:47 23 1002 233 3 S 0 52.7 422
14:28:48 24 1002 238 3 SW 0 46.5 416
14:31:49 24 1002 232 2 O 0 45.7 410
14:34:49 24 1003 243 1 SW 0 45.2 415
14:37:48 25 1002 243 3 SW 0 44.6 424
14:40:51 25 1002 243 5 S 0 42.6 428
14:43:49 26 1002 222 7 W 0 40.1 422
14:46:51 25 1002 227 3 NW 0 39.3 418
14:49:49 24 1002 227 2 NO 0 39.4 419
14:52:45 23 1003 226 0 N 0 41.9 415
14:55:48 23 1003 222 7 W 0 43.1 410
14:58:46 22 1002 225 2 W 0 44.8 415
15:01:49 21 1002 230 3 NW 0 46 413
15:04:49 21 1002 235 8 NW 0 47.9 410
15:07:50 22 1002 245 4 SW 0 48.9 415
15:10:30 21 1002 221 6 S 0 40 413
15:13:49 23 1002 216 3 S 0 44.3 419
15:16:47 22 1002 227 1 W 0 44.8 426
15:19:47 22 1002 231 3 SO 0 47.7 424
15:22:49 22 1002 238 4 O 0 48.1 422
15:25:47 23 1002 235 1 S 0 48.2 418
15:28:50 24 1002 225 3 S 0 45 420
15:31:46 24 1002 210 2 O 0 44.3 413
15:34:51 23 1002 203 2 SW 0 44.4 410
15:37:48 22 1002 216 4 O 0 45.5 415
15:40:49 21 1002 218 3 S 0 47 413
15:43:48 21 1002 215 8 SW 0 47.8 418
15:46:48 20 1002 224 4 W 0 48.9 418
15:49:48 21 1002 237 4 SW 0 50.1 418
15:52:48 22 1002 247 4 SW 0 50.3 418
15:55:48 22 1002 225 8 SW 0 45.6 406
15:58:48 22 1002 208 2 S 0 44.9 410
16:01:50 21 1002 209 5 SO 0 45.4 407
16:04:50 20 1002 211 10 SW 0 48 413
16:07:50 20 1002 220 6 SW 0 49.2 421
16:10:48 20 1002 224 5 NO 0 50.5 418
16:13:50 20 1002 226 6 SW 0 51.3 419
16:16:49 20 1002 217 4 SO 0 51.4 422
16:19:49 20 1003 217 2 S 0 51.9 421
16:22:46 20 1002 213 5 S 0 51.7 428
16:25:47 20 1002 207 1 W 0 51.3 425
16:28:49 20 1002 205 1 S 0 52.1 424
16:31:47 20 1002 215 3 S 0 52 424
16:34:48 20 1002 227 3 W 0 52.4 421
16:37:49 20 1002 232 1 NW 0 52.3 415
16:40:51 21 1002 237 1 SO 0 53.6 418
16:43:49 21 1002 210 7 O 0 51.4 425
16:46:46 21 1002 195 3 S 0 51.1 422
16:49:48 21 1002 192 1 SO 0 50.6 424
16:52:48 20 1002 200 5 S 0 51.2 425
16:55:48 20 1002 220 3 S 0 52.6 424
16:58:50 20 1002 219 2 SW 0 53.9 430
17:01:47 20 1002 205 0 S 0 54.6 424
17:04:49 20 1002 191 1 SO 0 55 425
17:07:50 20 1002 170 0 NW 0 54.6 419
17:10:47 19 1002 164 6 SW 0 55.1 416
17:13:47 19 1002 158 1 S 0 55.5 413
17:16:48 19 1002 150 2 SO 0 56.4 415
17:19:47 18 1002 177 3 SW 0 56.8 427
17:22:49 18 1002 225 2 SO 0 57.2 421
17:25:49 19 1002 238 1 SW 0 57.4 424
17:28:47 20 1002 227 2 W 0 57.6 418
17:31:48 20 1002 211 3 S 0 55.6 418
17:34:49 20 1002 178 2 SO 0 54.4 418
17:37:48 20 1002 181 7 SW 0 54.5 419
17:40:48 20 1002 191 3 S 0 54.8 424
17:43:47 19 1002 165 5 W 0 55.4 424
17:46:47 19 1002 158 3 SW 0 55.9 424
17:49:49 19 1002 174 10 0 57.6 413
17:52:49 18 1002 188 3 S 0 58.6 409
17:55:48 18 1002 197 3 S 0 59.7 410
17:58:49 18 1002 186 4 S 0 60.8 413
18:01:49 18 1002 163 10 SW 0 61.3 421
18:04:50 18 1002 187 0 SW 0 60.4 419
18:07:49 18 1002 190 8 SO 0 60.8 428
18:10:47 18 1002 194 1 S 0 61 419
18:13:47 18 1002 190 2 SO 0 61 419
18:16:49 18 1002 200 2 SW 0 60.9 427
18:19:47 18 1002 212 1 SW 0 60.6 429
18:22:48 18 1002 214 2 S 0 60.8 424
18:25:48 19 1002 207 2 W 0 60.3 422
18:28:50 19 1002 209 0 O 0 60 413
18:31:47 19 1002 210 1 S 0 59.9 416
18:34:49 19 1002 212 0 O 0 60.1 425
18:37:48 19 1002 204 0 O 0 60 430
18:40:49 19 1002 196 2 SW 0 59.5 422
18:43:48 19 1002 172 1 S 0 59.7 419
18:46:46 19 1002 166 2 S 0 59.7 413
18:49:50 19 1002 160 1 NW 0 60.2 419
18:52:48 18 1002 152 3 N 0 60.5 419
18:55:47 18 1002 138 0 SO 0 61.1 425
18:58:49 18 1002 132 2 S 0 61.1 421
19:01:48 18 1002 149 2 W 0 61.2 422
19:04:49 18 1002 180 0 NO 0 61.3 427
19:07:48 18 1002 176 6 S 0 61.6 430
19:10:49 18 1002 185 5 SW 0 62 424
19:13:47 18 1002 185 1 W 0 61.8 419
19:16:47 18 1002 185 2 SW 0 61.8 421
19:19:48 18 1002 187 0 SO 0 61.2 422
19:22:50 18 1002 191 10 SW 0 61.2 427
19:25:49 18 1001 182 0 SO 0 61.1 422
19:28:48 18 1002 192 4 SW 0 60.9 418
19:31:49 18 1002 200 3 SO 0 60.9 413
19:34:47 18 1002 197 1 W 0 60.9 410
19:37:51 18 1002 187 0 SO 0 61 410
19:40:47 18 1002 171 2 SO 0 61.3 413
19:43:47 18 1002 154 3 O 0 61.9 416
19:46:49 18 1002 139 1 SW 0 62.5 423
19:49:52 18 1002 134 3 S 0 62 422
19:52:50 18 1002 146 2 S 0 62.3 416
19:55:46 18 1002 130 4 SW 0 62.7 412
19:58:49 18 1002 109 10 SW 0 62.6 399
20:01:50 18 1002 114 2 NW 0 62.7 419
20:04:50 18 1001 118 6 SO 0 62.6 428
20:07:48 18 1002 113 2 W 0 62.6 418
20:10:48 18 1002 120 2 N 0 62.8 419
20:13:48 18 1002 111 1 W 0 63.1 425
20:16:48 17 1002 124 0 SO 0 63 427
20:19:49 17 1002 130 0 SO 0 63.1 424
20:22:49 17 1002 138 2 SW 0 63.4 427
20:25:50 17 1002 138 4 S 0 63.4 419
20:28:50 17 1002 139 1 NW 0 63.4 422
20:31:48 17 1002 131 9 N 0 63.4 416
20:34:50 17 1001 126 2 SW 0 63.4 422
20:37:49 17 1002 131 2 NO 0 63.2 430
20:40:50 18 1002 140 2 SO 0 63 433
20:43:47 17 1001 129 4 S 0 63 430
20:46:48 17 1002 110 2 SO 0 63.1 428
20:49:48 17 1001 98 1 S 0 63.2 427
20:52:47 17 1001 103 4 W 0 63.3 422
20:55:48 17 1002 82 2 SO 0 63.5 432
20:58:48 17 1001 68 0 W 0 63.6 427
21:01:48 17 1001 39 1 W 0 63.6 427
21:04:49 17 1002 42 2 S 0 63.9 427
21:07:46 17 1002 31 1 S 0 63.9 424
21:10:48 17 1001 41 3 SO 0 63.9 427
21:13:51 17 1002 27 3 NO 0 63.9 421
21:16:46 17 1001 33 2 O 0 63.9 427
21:19:47 17 1001 32 3 W 0 63.9 424
21:22:46 17 1001 27 3 SO 0 64 430
21:25:46 17 1001 29 0 W 0 64.1 428
21:28:49 17 1001 23 2 S 0 64.2 425
21:31:48 17 1001 18 0 SO 0 64.1 425
21:34:47 17 1002 9 1 SO 0 64.3 424
21:37:47 17 1001 6 2 SW 0 64.3 422
21:40:48 17 1002 3 2 SW 0 64.6 424
21:43:46 17 1001 0 6 S 0 64.6 424
21:46:45 17 1002 0 3 N 0 64.6 427
21:49:47 17 1001 0 3 NO 0 64.6 424
21:52:46 17 1002 0 3 SW 0 64.6 427
21:55:47 17 1001 0 0 S 0 64.9 425
21:58:46 17 1001 0 0 SW 0 64.9 430
22:01:49 17 1001 0 4 SO 0 65.1 436
22:04:47 17 1001 0 2 W 0 65.3 434
22:07:47 17 1003 0 9 S 0 65.5 430
22:10:48 17 1001 0 1 SO 0 65.6 425
22:13:48 17 1001 0 1 SO 0 65.6 425
22:16:48 17 1001 0 1 NW 0 66 427
22:19:48 17 1001 0 15 O 0 66.2 430
22:22:50 17 1001 0 1 SO 0 66.2 428
22:25:46 17 1001 0 2 S 0 66.3 421
22:28:48 17 1002 0 2 SO 0 66.5 422
22:31:49 17 1001 0 3 SW 0 66.6 424
22:34:47 17 1002 0 2 S 0 67 422
22:37:49 17 1001 0 9 NO 0 67.2 422
22:40:51 17 1001 0 2 SW 0 67.3 428
22:43:49 17 1000 0 2 NW 0 67.5 419
22:46:48 17 1001 0 7 SW 0 67.6 424
22:49:48 17 1000 0 3 SO 0 68 424
22:52:48 17 1001 0 1 SO 0 67.9 422
22:55:47 17 1001 0 3 S 0 68.1 424
22:58:51 17 1002 0 0 NW 0 68.6 431
23:01:46 17 1001 0 5 0 68.9 427
23:04:49 17 1001 0 5 W 0 69.1 430
23:07:50 17 1001 0 1 NW 0 69.4 425
23:10:47 17 1001 0 1 N 0 69.4 424
23:13:46 16 1001 0 3 W 0 69.5 427
23:16:48 16 1001 0 1 O 0 70.2 428
23:19:46 16 1001 0 0 S 0 70.3 431
23:22:48 16 1001 0 0 SO 0 70.8 436
23:25:46 16 1001 0 2 W 0 70.9 433
23:28:45 16 1001 0 0 W 0 71.1 430
23:31:48 16 1000 0 0 NW 0 71.3 433
23:34:47 16 1001 0 1 W 0 71.6 433
23:37:47 16 1001 0 4 NO 0 73.3 433
23:40:48 16 1002 0 2 SO 0 74 436
23:43:46 16 1001 0 5 O 0 74.7 437
23:46:47 16 1002 0 1 O 0 76.3 440
23:49:46 16 1002 0 4 NW 0 77.4 430
23:52:49 15 1002 0 6 NW 0 80.2 428
23:55:47 15 1001 0 5 NW 0 81.5 433
23:58:47 15 1001 0 2 SO 0 82.3 427

Letzte Änderung : 22-Jul-2022
Copyright Jens Köhler, Wolfsburg, Obere Dorfstraße 10d